Starlink 33982

operational
NORAD ID: 63707 Int'l Des: 2025-087 Owner: SPXS Country: US Constellation: starlink
LEOCIRCULAR

About Starlink 33982

Description loading...

Live Position

Loading 3D Globe...

Upcoming Passes

Altitude History

Altitude vs Time

uPlot chart will show altitude changes over time

Two-Line Element Set

1 63707U 25087L 25304.84197935 .00033253 00000-0 11303-2 0 9991
2 63707 53.1582 97.9547 0001307 86.1257 273.9893 15.30185197 29473
Epoch: Oct 31, 2025 • Age: 12 hours

Current Status

Altitude 488.0 km
Velocity 7.62 km/s
Sub-Earth Point -37.60°S, 108.33°W
Launch Date Apr 28, 2025
Age 0.5 years
Type internet

Technical Details

Classification Payload
Mass 575.00 kg
Dry Mass 530.00 kg
Total Mass 575.00 kg
Length 0.30 m
Diameter 4.10 m
Span 29.00 m
Shape Box + pan
Manufacturer SPXS
Bus Type Starlink V2MO
Phase Status In Orbit
Owner/State SPXS/US

Large Constellations

Loading constellations...